sat.trackr.live / text

‹ back to catalog

STARLINK-35901

NORAD 67043 · 2025-294P

PAYLOAD ACTIVE UNKNOWN

§ Identity

Operator
Country
US
Launch date
2025-12-11
Launch site
AFETR
Launch vehicle
Mass (kg)
RCS (m²)

Purposes: comms

External: N2YO · Heavens-Above · Gunter

§ Orbital elements

Epoch: 2026-09-20T09:12:06.566976Z

Period
94.27 min
Inclination
43.0024°
Eccentricity
0.0001430
Mean motion
15.27586000 rev/d
Perigee alt
482.0 km
Apogee alt
484.0 km
Semi-major
6,861.2 km
B*
4.4767e-4
RAAN
18.6695°
Arg perigee
266.6262°
Mean anomaly
93.4426°
Rev number
4,457

§ Raw data

STARLINK-359011 67043U 25294P   26263.38340934  .00012079  00000+0  44767-3 0  99942 67043  43.0024  18.6695 0001430 266.6262  93.4426 15.27586000 44570

JSON: /api/v1/satellites/67043 · /tle

For live sub-satellite position, see the globe view (requires WebGL).

§ Visibility from observer

Set your observer location to see the next 7 days of passes ≥ 10°. The values pass through the URL so the page stays shareable.

No JS? Fill the form by hand. The geolocation button needs JavaScript.